Temp
23 23 23 22 22 20 22 24 26 28 30 30 29 29 29 29 28 27 27 30 30 30 29 28 27 27 27 27 26 25 25 25 25 25 24 24 23 23 23 22 22 21 20 19 18 19 19 19 18
23 23 22 21 22 22 23 24 27 27 30 28 29 29 30 30 29 29 28 28 30 30 29 29 27 27 27 26 26 26 25 25 25 25 24 24 23 23 22 22 22 21 20 19 19 18 18 18 18
23 23 22 22 21 21 24 26 27 29 28 29 30 30 30 31 29 28 30 31 30 30 30 29 28 27 27 26 26 26 26 25 25 25 25 24 23 23 22 22 22 21 19 18 18 18 18 18 17
22 21 20 21 22 23 24 28 27 27 29 29 30 31 30 30 29 32 32 31 31 30 29 29 28 28 27 27 26 26 26 25 25 25 25 24 23 22 22 21 21 21 20 18 18 18 18 17 17
22 20 21 21 22 24 24 25 27 27 28 29 31 31 30 30 31 32 33 32 32 30 29 29 29 28 27 27 26 26 26 25 25 25 24 23 23 22 21 21 20 19 18 18 18 18 18 18 17
21 19 19 22 23 26 25 26 28 28 28 29 30 29 30 31 30 30 30 31 30 30 29 28 29 28 27 27 26 26 26 26 25 25 24 23 22 22 21 21 20 19 18 18 18 18 18 18 18
20 19 21 22 24 25 26 27 28 29 29 29 30 30 29 30 30 31 30 30 29 28 28 26 27 27 27 26 26 26 26 26 25 25 24 23 22 22 21 21 21 19 18 19 18 18 18 18 18
19 19 21 21 24 25 27 28 30 30 30 31 31 29 30 30 31 29 28 27 27 27 27 28 27 26 25 25 26 26 26 25 25 24 24 24 23 22 21 21 20 20 19 19 18 18 18 18 17
20 19 19 22 23 25 27 26 29 29 30 30 31 30 31 31 31 29 28 27 26 26 26 27 27 26 25 24 24 25 25 25 25 24 24 23 22 22 21 21 20 20 20 19 19 19 19 18 18
20 17 20 22 24 25 26 26 26 28 26 28 29 30 32 32 31 28 26 26 27 27 28 27 26 26 25 23 23 23 24 24 24 24 23 22 22 22 22 21 20 20 20 19 19 19 19 18 18
19 21 23 23 25 25 25 25 26 26 26 27 27 28 28 28 28 27 26 27 29 30 28 28 28 27 26 24 23 22 23 23 23 23 22 22 22 22 21 21 20 20 20 19 19 19 18 18 18
19 21 23 23 24 25 25 25 25 25 25 26 26 26 26 26 24 24 25 28 30 30 31 31 29 27 26 23 23 22 22 23 22 22 22 21 21 21 20 20 21 20 20 19 19 19 18 18 19
20 21 21 23 24 24 25 24 24 25 26 26 27 27 25 24 24 27 29 30 30 29 31 31 30 29 27 23 22 22 22 22 22 21 21 21 20 21 21 20 21 20 20 19 19 19 18 19 19
20 21 21 22 22 23 24 24 24 25 25 25 26 25 25 24 24 26 26 27 29 30 31 32 31 30 27 25 23 23 20 20 21 21 21 20 20 21 21 21 20 20 20 19 19 19 19 19 18
19 20 20 20 20 22 23 23 23 25 26 26 26 26 26 26 25 24 28 28 30 31 31 30 30 29 28 26 24 22 21 21 21 20 20 19 19 20 21 21 20 20 20 19 19 19 18 18 18
19 19 19 22 20 22 23 23 26 25 26 26 26 26 26 25 24 26 28 28 30 30 30 30 29 28 28 26 24 22 21 21 20 19 19 18 18 20 21 20 19 20 19 18 18 19 18 18 18
16 19 17 20 21 22 23 23 24 26 25 24 24 24 24 24 23 24 27 29 30 31 31 31 29 29 28 26 23 22 21 21 20 18 18 17 18 20 20 20 20 20 19 18 18 18 18 18 18
16 15 19 19 21 22 21 22 24 24 24 25 23 23 23 22 22 25 28 30 30 31 31 30 29 28 26 23 21 20 20 19 19 18 18 18 19 19 20 20 20 19 19 19 18 18 18 17 17
17 17 18 19 20 21 21 22 22 22 22 23 24 24 25 25 25 25 27 29 30 30 29 29 28 28 23 20 19 18 18 18 18 18 19 19 19 20 19 19 19 18 19 19 19 18 16 15 16
16 16 16 18 19 19 19 19 19 20 21 22 23 23 22 22 21 22 25 27 27 28 29 29 28 25 23 21 20 20 18 17 17 19 19 19 19 18 19 20 19 19 19 18 18 16 15 15 15
16 16 16 17 18 20 18 19 20 20 20 22 22 22 23 22 21 22 23 23 27 26 28 29 28 25 23 21 20 20 18 17 17 18 19 18 19 20 20 20 19 19 19 18 17 17 15 15 14
14 17 18 18 17 17 19 17 19 21 21 21 21 22 22 20 21 21 21 21 24 28 27 28 24 24 22 21 20 20 18 17 18 19 19 19 19 20 20 19 19 19 19 18 17 16 16 15 14
16 18 17 17 16 16 17 15 20 21 20 20 22 23 23 22 20 20 21 22 25 25 25 24 22 21 20 20 21 20 19 19 19 19 19 19 19 19 19 19 19 19 18 18 17 16 15 15 15
17 16 16 16 15 14 16 16 19 20 21 21 21 21 21 21 20 19 19 20 20 20 18 18 19 19 19 20 21 21 20 19 18 18 20 21 19 19 19 19 19 18 18 17 17 16 15 15 15
16 13 11 12 12 15 17 16 20 19 20 21 20 20 20 19 19 19 19 17 16 18 17 17 18 18 19 20 20 21 21 20 20 20 20 18 18 18 18 18 18 18 17 17 17 16 16 16 15
13 13 11 14 14 15 18 16 18 20 21 21 21 20 19 19 19 18 17 16 18 18 17 17 18 18 19 20 20 20 21 21 21 20 20 19 19 18 18 18 17 17 17 17 16 16 16 16 15
15 13 15 14 15 14 15 17 19 22 21 21 21 21 20 19 18 17 16 18 17 17 17 18 18 18 19 19 20 20 20 20 20 19 19 19 18 18 18 17 17 17 17 17 16 16 16 16 16
16 16 14 12 14 14 15 16 18 20 20 22 20 19 19 19 16 17 17 17 16 16 17 18 18 19 19 20 20 20 20 20 20 19 18 18 18 18 18 17 17 17 17 16 16 17 16 16 16
14 14 14 13 12 14 15 15 17 20 20 20 19 20 19 16 17 17 17 16 15 16 17 17 18 18 19 20 20 20 19 19 19 19 19 19 18 18 17 17 17 17 17 17 17 16 16 15 15
14 14 14 12 14 14 13 15 18 19 18 18 19 18 15 16 17 17 17 16 16 15 16 16 17 18 19 20 20 19 19 19 19 19 18 18 18 18 18 18 18 17 17 17 17 16 16 15 15
Height
771 773 774 778 800 806 808 791 765 761 755 740 736 741 744 743 755 776 726 728 733 737 742 746 751 755 757 760 764 766 768 769 771 772 774 776 778 780 781 783 785 788 791 793 793 795 795 796 797
770 773 775 780 803 813 800 774 768 756 741 738 738 736 739 743 729 727 727 728 733 736 739 744 748 753 756 759 762 765 767 768 769 770 772 774 777 779 781 782 783 787 790 792 793 795 796 797 797
769 772 780 788 800 808 792 763 756 743 741 740 741 732 735 734 723 723 724 727 732 736 739 741 746 751 754 759 761 763 765 767 768 770 771 773 777 779 781 782 783 785 788 790 791 793 795 796 797
768 774 781 796 794 780 770 753 749 747 736 732 733 741 727 722 720 721 723 727 730 734 738 741 745 749 752 755 759 762 763 766 767 770 772 774 777 779 781 782 783 784 787 789 791 792 794 795 797
769 778 795 799 789 769 758 752 750 750 744 734 730 738 733 723 722 721 723 726 728 731 736 739 743 746 750 753 757 759 761 765 767 768 772 774 776 778 780 781 783 785 786 788 790 791 792 793 795
774 780 801 798 785 762 753 746 746 742 737 732 736 736 731 721 724 724 725 727 729 732 734 737 739 744 748 750 754 757 759 762 765 767 769 772 775 777 779 780 782 784 786 787 788 789 790 791 793
778 789 791 786 780 766 753 737 744 739 736 735 727 740 729 721 724 725 726 729 730 733 735 737 739 743 746 749 752 755 758 760 763 765 767 770 772 776 777 779 781 784 785 786 787 788 789 790 791
771 780 784 782 777 767 744 737 728 730 730 718 719 740 735 719 722 727 729 731 731 732 733 734 737 739 743 746 748 752 756 758 759 762 763 765 768 772 775 777 780 782 784 785 786 786 787 788 789
764 785 790 776 770 755 739 746 727 721 723 723 719 721 720 721 722 726 730 732 731 732 732 733 735 737 739 743 746 750 753 755 756 757 758 761 763 767 771 774 778 781 782 783 784 784 786 786 786
767 783 773 754 749 748 741 742 736 732 734 727 722 717 718 721 723 727 727 726 727 728 727 728 732 733 736 739 741 745 747 749 750 753 755 758 759 762 766 771 775 778 779 781 783 783 783 784 784
757 758 750 744 741 740 741 741 730 734 739 725 726 720 720 720 724 726 724 724 722 723 725 724 724 727 730 732 735 739 741 743 745 746 750 752 757 759 762 767 771 774 776 778 781 782 781 781 782
758 744 741 739 738 741 743 736 734 726 728 718 717 717 719 723 724 722 722 719 720 719 717 718 719 722 723 726 728 730 733 736 737 739 744 747 750 756 761 765 767 770 772 775 778 779 780 779 780
746 741 739 735 735 736 737 735 737 723 718 714 715 715 718 719 720 717 716 717 716 717 713 714 715 715 716 721 723 724 725 727 730 733 736 742 746 751 754 763 764 766 768 771 774 777 778 777 778
736 737 740 737 738 738 739 732 736 719 717 717 717 713 712 713 711 710 710 710 710 708 706 707 709 709 710 710 713 714 720 725 726 727 729 734 737 743 751 756 760 763 765 768 772 773 775 774 776
737 744 740 742 740 740 735 738 722 716 717 715 711 708 706 703 703 704 701 702 702 700 700 701 701 702 703 703 704 708 712 714 718 720 725 730 732 742 748 750 756 759 764 766 770 771 771 772 772
740 742 748 729 738 732 732 724 703 705 711 710 705 703 701 697 696 696 696 697 695 694 693 692 693 694 694 695 696 701 705 707 710 715 719 724 731 738 744 748 756 760 763 766 767 768 768 769 769
745 737 745 738 723 729 729 707 707 702 707 706 703 701 699 694 691 690 690 690 687 687 685 684 684 685 685 687 690 695 698 701 704 712 715 721 728 735 738 742 752 758 759 763 764 765 766 766 766
741 747 733 737 725 724 730 705 708 706 705 700 703 697 693 691 688 683 681 680 680 678 678 677 676 676 679 682 686 692 696 700 702 708 714 720 725 728 732 735 738 741 755 759 761 762 763 763 763
734 737 738 732 723 724 723 713 710 707 705 700 695 691 686 682 679 678 677 675 673 672 671 668 669 668 672 677 682 689 691 696 702 706 712 715 720 723 727 736 743 742 749 755 757 758 760 760 760
736 740 742 734 725 727 726 722 714 709 701 694 689 687 685 682 679 674 669 667 667 666 665 662 663 664 666 672 674 682 686 693 699 704 707 712 718 721 726 730 736 741 745 750 752 755 756 756 757
735 739 739 740 727 719 727 714 708 697 691 685 680 678 675 674 674 668 665 662 661 660 658 659 658 661 664 670 674 680 686 692 697 699 704 710 716 721 725 729 735 739 743 746 749 751 752 753 755
741 728 729 729 736 742 723 729 703 694 687 682 680 673 669 669 663 661 660 657 654 651 653 652 653 655 658 665 671 675 679 686 689 694 701 709 715 720 725 729 733 737 740 743 746 747 748 750 752
730 725 732 734 738 739 731 743 683 681 683 679 671 662 659 656 657 655 652 651 647 648 648 649 651 653 656 662 668 674 678 682 687 695 702 709 715 721 725 729 732 735 738 741 742 744 745 747 748
717 724 731 733 742 751 730 738 684 685 671 669 662 659 654 652 650 648 645 646 645 644 645 647 648 652 657 663 668 671 675 681 689 696 703 709 714 720 724 727 730 734 736 738 740 741 743 744 745
720 733 755 758 758 736 714 730 680 670 666 663 663 655 652 647 645 644 643 645 646 645 646 646 648 653 658 664 669 673 675 682 689 696 702 708 714 719 723 726 729 732 735 737 738 739 740 741 743
725 728 742 736 738 725 709 714 684 662 653 650 652 651 647 642 639 638 640 644 643 645 646 648 650 656 661 666 672 676 679 685 692 697 703 708 713 719 722 725 728 731 733 734 736 737 738 739 741
716 726 713 723 719 726 713 689 672 654 654 653 652 648 644 638 636 637 640 641 644 646 648 649 652 658 663 669 674 678 684 689 695 700 705 711 716 719 721 725 727 730 731 733 734 735 737 737 738
706 705 721 733 725 723 705 694 683 665 665 655 655 651 640 633 636 637 640 642 645 648 651 653 657 660 666 671 676 681 686 691 697 702 708 712 715 718 721 724 727 729 730 732 732 732 733 734 735
711 712 712 718 722 714 706 695 667 657 659 661 658 646 638 635 636 637 640 644 647 651 655 657 660 665 669 674 679 684 690 695 700 705 708 712 715 718 721 725 727 728 729 729 729 730 731 732 732
713 712 712 721 710 709 715 702 658 659 660 661 654 648 643 639 637 637 641 645 649 653 658 661 665 669 674 679 683 688 693 698 702 706 709 712 715 719 722 725 726 726 727 727 727 727 728 729 730
Wind_Speed
4 3 4 0 2 4 3 6 3 3 3 1 1 6 11 5 7 5 2 24 14 30 31 35 33 31 28 27 26 25 24 23 22 21 20 19 17 16 14 13 12 10 8 7 6 5 4 4 3
6 6 1 1 3 2 5 4 7 6 2 9 4 2 2 5 3 2 7 25 16 30 32 37 35 33 29 28 27 26 25 24 23 22 21 19 18 17 16 14 12 11 10 8 6 5 3 2 2
8 4 2 3 4 6 5 4 5 3 6 4 3 3 3 4 3 4 5 27 18 27 32 38 36 34 30 29 29 28 26 25 24 22 20 19 18 16 15 14 12 11 10 9 7 5 3 2 1
5 2 3 1 7 6 6 3 2 7 7 5 5 4 2 1 7 11 16 27 20 27 35 38 37 34 32 32 31 29 27 26 24 22 19 19 17 16 14 13 12 11 10 9 8 6 4 3 3
2 2 2 3 6 5 5 6 3 7 4 6 3 3 2 5 3 13 23 28 23 29 35 38 37 36 35 34 33 31 30 27 24 22 21 19 18 17 15 12 10 10 10 10 8 6 5 5 6
3 2 2 6 6 4 6 7 4 3 4 5 5 4 3 4 5 13 25 25 24 27 34 37 38 38 36 35 34 33 31 29 27 24 23 21 19 17 15 12 10 10 11 9 9 8 6 6 9
4 4 4 3 4 5 5 5 5 5 2 3 4 3 4 2 9 12 20 23 21 23 29 35 36 39 38 37 36 35 33 31 28 27 24 21 19 18 15 12 10 10 10 9 9 7 7 8 8
4 4 3 5 5 6 4 3 3 3 1 2 6 1 2 6 11 10 13 17 20 22 27 31 36 39 39 40 39 37 35 33 31 29 27 25 23 20 17 14 12 10 10 8 8 7 6 7 8
4 2 5 7 8 5 2 1 3 3 1 0 2 3 4 4 10 10 12 13 17 19 23 27 35 38 41 41 40 39 37 35 34 33 31 28 27 24 20 17 15 12 11 10 10 8 7 6 7
5 5 9 6 7 4 4 2 5 4 7 3 1 3 7 5 1 7 10 17 21 24 28 30 33 39 40 41 41 39 40 39 39 37 35 33 31 27 24 20 17 14 13 12 12 11 9 8 7
7 11 11 5 7 4 7 8 3 3 5 6 5 4 5 8 6 7 16 22 29 33 30 34 35 38 42 44 43 43 43 43 41 41 39 37 32 29 27 24 20 17 15 16 15 14 12 10 9
5 13 13 7 4 4 6 6 12 12 8 9 7 8 5 10 10 9 15 23 29 33 36 36 36 38 42 43 45 45 46 47 47 46 42 40 36 32 28 27 23 21 19 18 18 17 14 12 11
14 7 10 16 9 8 6 15 11 22 13 12 14 14 13 10 11 21 21 22 23 25 30 33 34 36 40 43 43 43 48 48 49 46 45 41 38 36 33 29 26 24 20 20 18 17 15 13 12
1 9 10 6 6 5 8 15 5 5 8 12 13 16 11 11 11 17 18 25 26 25 23 25 31 36 38 43 46 48 41 41 44 46 47 44 43 38 34 33 30 25 22 20 18 17 17 14 14
4 6 3 7 6 9 8 20 28 20 13 19 21 19 15 15 14 13 27 24 30 28 25 27 29 29 37 43 44 44 43 43 45 45 42 41 43 37 35 34 32 26 22 20 19 17 17 15 14
4 5 16 14 9 6 10 29 20 9 16 21 21 16 15 15 11 22 27 26 27 28 33 36 31 25 30 38 41 42 42 43 42 39 37 39 36 35 34 34 30 22 20 20 18 18 17 15 15
4 16 9 5 8 10 13 31 7 7 8 13 11 11 12 14 11 18 26 28 31 37 38 38 33 29 30 34 38 38 39 40 37 34 33 31 30 31 34 34 26 22 19 21 20 18 16 16 17
9 5 2 5 5 15 14 32 14 10 12 17 11 14 13 10 11 17 29 34 39 38 42 39 37 30 30 30 30 31 31 31 31 30 28 25 27 31 33 33 32 25 23 21 18 17 17 19 18
4 2 1 3 4 4 17 21 16 10 11 16 18 19 20 20 15 19 28 33 35 39 39 36 31 27 25 27 26 24 25 26 25 25 21 25 26 29 31 28 24 22 23 21 17 17 16 15 14
6 1 3 5 8 4 7 12 9 8 13 14 18 17 14 13 9 11 20 31 32 36 35 30 26 22 25 28 26 15 23 19 23 17 20 22 24 27 24 26 27 23 21 17 17 17 12 8 9
4 9 3 6 8 12 8 18 12 8 12 16 17 15 15 15 13 13 14 18 30 33 34 30 29 23 23 26 22 14 16 11 18 20 20 22 23 22 25 25 23 20 16 17 17 15 13 8 7
5 3 1 2 3 8 2 9 15 15 18 14 12 14 14 12 14 13 10 12 25 35 26 24 21 20 24 26 26 26 18 13 14 25 23 22 22 22 23 22 20 17 14 14 14 12 11 11 9
9 8 8 7 6 3 3 5 13 5 11 12 16 19 18 17 12 12 13 15 26 28 22 17 17 17 21 25 24 25 21 19 20 24 23 22 19 18 18 19 16 13 13 11 10 11 11 12 10
6 6 4 1 2 7 7 6 21 9 12 7 14 13 12 11 10 10 10 13 15 11 8 11 15 17 21 24 25 26 27 25 28 28 25 19 16 16 16 15 13 12 11 10 10 10 10 11 11
5 5 2 1 2 12 12 9 24 4 6 4 9 9 10 9 9 9 7 3 3 4 8 14 19 22 23 25 26 27 28 30 30 26 24 21 20 19 18 16 14 13 11 10 9 10 11 11 12
7 7 5 6 6 5 6 12 8 11 13 10 6 9 10 11 9 6 4 4 4 9 12 19 24 23 22 23 24 25 26 27 27 26 25 25 24 19 16 14 12 10 10 10 9 10 10 11 11
4 4 7 3 3 1 5 7 8 16 10 8 8 9 11 11 8 5 6 6 8 12 17 25 26 25 24 24 25 24 23 24 24 22 22 21 17 15 12 10 9 8 8 9 9 11 12 11 12
4 4 3 1 4 5 6 6 6 6 2 4 8 11 13 7 5 7 8 10 10 15 21 25 26 27 25 25 24 22 21 20 20 21 21 17 14 11 10 10 8 7 6 6 6 9 10 13 15
1 1 2 2 5 4 2 5 6 15 4 8 10 11 13 6 9 9 10 9 15 19 21 24 26 26 25 25 25 24 22 21 20 18 15 13 12 12 12 9 7 4 3 3 5 6 6 8 6
2 3 1 4 8 4 3 6 6 6 7 8 13 11 6 4 9 11 12 10 12 16 18 22 26 29 28 27 26 24 21 19 17 14 13 12 14 12 10 8 4 2 3 5 5 6 9 12 13
Wind_Direction
164 169 149 212 74 72 250 257 259 290 280 240 314 161 177 162 172 207 234 175 182 183 182 186 186 186 181 178 177 176 174 170 168 165 164 165 166 166 165 167 167 169 173 168 156 154 150 146 136
146 134 96 105 112 141 248 233 230 217 307 322 337 41 135 188 224 280 134 175 180 183 182 187 188 189 184 183 182 181 180 177 174 171 170 169 170 168 167 166 163 165 167 166 163 162 157 146 137
138 113 94 166 175 193 222 225 238 252 272 207 267 227 187 200 172 189 189 174 179 187 195 190 190 191 187 189 188 187 187 185 181 178 175 173 173 170 169 167 162 164 167 169 170 174 176 174 234
139 70 21 167 227 245 206 237 326 312 306 182 203 246 263 207 170 169 168 176 186 192 194 191 193 193 193 194 194 193 193 191 186 183 181 178 179 175 173 170 166 166 169 177 182 190 200 212 248
108 52 173 255 264 265 253 256 262 278 271 265 125 240 291 321 181 163 174 183 191 195 195 195 196 197 198 199 200 199 198 197 193 188 187 186 186 182 178 175 171 175 179 185 195 207 224 237 259
89 105 121 235 248 262 269 244 235 255 248 289 151 136 248 259 190 176 180 185 198 198 199 199 201 203 203 204 205 205 203 202 200 195 192 192 190 188 184 179 181 188 192 193 203 213 228 253 265
154 122 214 199 245 266 234 239 210 210 224 31 173 121 276 292 196 186 186 196 205 207 205 204 205 207 209 210 210 211 210 207 205 202 200 196 194 195 192 189 189 197 199 203 210 218 231 252 265
144 133 215 215 204 256 251 278 230 206 188 269 169 83 169 238 176 188 197 209 212 212 215 213 211 213 214 215 215 215 214 213 211 209 205 203 200 198 198 198 200 203 204 208 215 217 232 252 266
133 129 221 215 176 245 210 286 257 258 182 122 111 130 234 355 181 187 211 230 228 230 229 226 221 220 219 220 220 220 219 219 217 215 213 206 203 200 201 203 205 211 211 214 217 218 231 253 267
165 179 217 203 202 230 263 281 318 357 344 255 194 229 315 51 58 223 221 229 237 238 237 232 230 227 225 225 224 221 221 220 220 220 215 212 208 205 204 207 209 215 219 222 225 224 231 247 264
192 221 219 236 217 235 283 311 316 331 288 227 265 281 350 335 303 254 259 239 238 243 244 239 234 233 229 228 227 225 225 224 223 222 219 216 212 207 207 207 212 217 222 227 230 232 231 240 256
219 222 218 226 223 255 244 291 297 283 239 289 300 288 295 279 281 269 250 244 245 250 254 248 243 238 235 230 228 227 226 225 226 225 222 219 213 209 211 213 214 220 226 233 236 238 238 238 250
234 210 222 241 240 240 277 258 258 275 290 296 292 278 269 263 261 267 258 254 259 254 253 252 249 245 242 233 229 230 229 226 227 226 225 220 216 212 214 219 219 225 229 233 235 240 241 239 249
165 221 238 243 230 243 248 269 238 235 251 252 256 266 266 247 245 265 260 257 261 266 265 259 247 249 241 237 234 232 226 228 230 229 227 222 220 215 216 220 223 227 230 234 236 241 244 244 252
256 276 261 219 220 235 212 266 251 248 253 263 265 264 264 258 251 245 259 264 278 284 282 275 270 249 241 240 236 231 229 231 231 230 228 224 222 218 219 223 226 226 237 234 241 241 241 244 253
201 170 242 236 180 239 159 257 251 211 227 245 250 250 255 260 243 258 269 270 277 282 285 294 287 274 251 240 236 229 230 231 230 227 225 225 220 222 224 226 227 230 242 240 240 238 235 246 259
240 237 217 247 214 198 192 252 203 204 219 249 259 266 252 257 265 255 269 280 292 295 296 295 291 281 262 241 235 232 228 229 227 225 224 221 225 222 222 225 224 236 237 235 237 228 235 250 257
218 233 194 193 212 197 207 245 254 271 265 264 257 256 262 262 255 272 287 290 292 295 294 289 284 274 254 236 225 224 224 229 226 224 223 229 228 219 220 220 218 205 219 230 226 233 241 245 255
38 68 83 335 265 216 224 250 253 252 261 262 264 265 266 268 270 268 274 283 288 291 290 287 282 270 235 211 198 205 205 216 219 220 226 229 223 217 215 214 216 201 209 219 229 235 236 246 262
270 280 248 266 258 227 284 280 275 259 257 248 254 257 259 264 277 268 269 278 280 285 286 287 278 256 223 213 201 197 198 207 212 217 219 223 215 210 199 203 204 198 205 218 226 226 236 250 246
206 229 226 221 296 286 291 283 271 248 241 249 256 257 256 251 249 258 265 260 278 280 281 285 278 249 218 211 190 176 167 173 189 202 207 209 207 199 199 198 195 201 211 224 228 234 239 239 233
217 175 300 315 177 257 45 283 279 271 262 252 253 253 250 239 245 246 250 266 267 273 290 288 267 223 206 204 191 181 169 160 194 193 195 193 193 194 196 195 194 204 216 222 232 239 239 226 213
247 194 226 236 267 310 260 304 273 217 258 256 253 255 251 242 233 245 244 251 268 280 283 269 225 202 190 188 188 181 181 183 177 180 173 169 179 183 185 192 199 207 215 229 239 230 222 220 213
205 179 180 156 130 257 205 191 277 243 250 232 243 251 255 256 248 251 256 270 278 288 250 204 180 167 170 174 176 177 170 160 154 159 164 172 181 181 187 193 200 209 225 227 226 223 227 227 226
188 119 129 127 187 233 176 190 236 254 309 238 275 269 259 253 254 254 252 226 219 202 176 149 155 149 163 168 170 170 161 161 162 163 172 170 175 178 183 193 200 215 219 220 225 227 229 230 230
201 172 166 171 188 227 142 226 245 226 249 271 280 261 274 268 258 253 173 165 162 153 140 137 140 142 151 159 162 160 154 156 162 169 171 173 177 177 184 196 208 216 216 224 230 232 234 236 235
172 163 214 24 287 124 213 277 286 280 281 282 298 298 287 277 261 167 140 141 137 134 134 140 136 137 144 146 146 143 149 157 161 167 170 169 168 173 187 200 204 200 213 227 238 243 242 235 235
163 170 106 316 208 229 250 256 236 292 339 331 330 295 280 275 131 147 147 142 118 126 132 137 138 138 139 137 139 143 145 148 152 153 157 159 161 173 181 177 182 197 220 239 254 262 250 242 237
23 261 223 198 177 210 297 267 228 221 324 351 313 301 312 193 164 151 144 130 122 126 130 130 132 134 136 138 136 133 134 139 146 153 156 161 165 164 161 164 172 186 241 257 258 257 238 237 241
4 293 257 198 243 264 123 286 313 77 52 9 336 333 349 117 158 145 138 125 121 120 126 130 135 134 136 136 135 134 136 143 148 152 158 163 154 158 159 158 169 227 266 272 259 250 220 218 203